Time,TemperatureF,DewpointF,PressureIn,WindDirection,WindDirectionDegrees,WindSpeedMPH,WindSpeedGustMPH,Humidity,HourlyPrecipIn,Conditions,Clouds,dailyrainin,SolarRadiationWatts/m^2,SoftwareType,DateUTC
2013-11-25 00:21:00,40.0,11.0,-100.00,NNE,22,0.0,3.0,30,-99.99,,,0.01,0.000000,,2013-11-25 07:21:00,
2013-11-25 00:32:00,40.0,11.0,-100.00,NNE,22,0.0,3.0,30,-99.99,,,0.01,0.000000,,2013-11-25 07:32:00,
2013-11-25 00:42:00,40.0,11.0,-100.00,NNE,22,0.0,3.0,30,-99.99,,,0.01,0.000000,,2013-11-25 07:42:00,
2013-11-25 00:52:00,40.0,11.0,-100.00,NNE,22,0.0,3.0,30,-99.99,,,0.01,0.000000,,2013-11-25 07:52:00,
2013-11-25 01:21:00,37.0,13.0,-100.00,WNW,290,0.0,3.0,37,-99.99,,,0.01,0.000000,,2013-11-25 08:21:00,
2013-11-25 01:32:00,37.0,13.0,-100.00,WNW,290,0.0,3.0,37,-99.99,,,0.01,0.000000,,2013-11-25 08:32:00,
2013-11-25 01:42:00,37.0,13.0,-100.00,WNW,290,0.0,3.0,37,-99.99,,,0.01,0.000000,,2013-11-25 08:42:00,
2013-11-25 01:52:00,37.0,13.0,-100.00,WNW,290,0.0,3.0,37,-99.99,,,0.01,0.000000,,2013-11-25 08:52:00,
2013-11-25 02:21:00,36.0,13.0,-100.00,ESE,102,0.0,3.0,39,0.00,,,0.01,0.000000,,2013-11-25 09:21:00,
2013-11-25 02:33:00,36.0,13.0,-100.00,ESE,102,0.0,3.0,39,0.00,,,0.01,0.000000,,2013-11-25 09:33:00,
2013-11-25 02:43:00,36.0,13.0,-100.00,ESE,102,0.0,3.0,39,0.00,,,0.01,0.000000,,2013-11-25 09:43:00,
2013-11-25 02:53:00,36.0,13.0,-100.00,ESE,102,0.0,3.0,39,0.00,,,0.01,0.000000,,2013-11-25 09:53:00,
2013-11-25 03:23:00,33.0,14.0,-100.00,ESE,112,0.0,3.0,45,0.00,,,0.01,0.000000,,2013-11-25 10:23:00,
2013-11-25 03:34:00,33.0,14.0,-100.00,ESE,112,0.0,3.0,45,0.00,,,0.01,0.000000,,2013-11-25 10:34:00,
2013-11-25 03:42:00,33.0,14.0,-100.00,ESE,112,0.0,3.0,45,0.00,,,0.01,0.000000,,2013-11-25 10:42:00,
2013-11-25 03:53:00,33.0,14.0,-100.00,ESE,112,0.0,3.0,45,0.00,,,0.01,0.000000,,2013-11-25 10:53:00,
2013-11-25 04:22:00,37.0,11.0,-100.00,NE,35,0.0,2.0,34,0.00,,,0.01,0.000000,,2013-11-25 11:22:00,
2013-11-25 04:33:00,37.0,11.0,-100.00,NE,35,0.0,2.0,34,0.00,,,0.01,0.000000,,2013-11-25 11:33:00,
2013-11-25 04:43:00,37.0,11.0,-100.00,NE,35,0.0,2.0,34,0.00,,,0.01,0.000000,,2013-11-25 11:43:00,
2013-11-25 04:52:00,37.0,11.0,-100.00,NE,35,0.0,2.0,34,0.00,,,0.01,0.000000,,2013-11-25 11:52:00,
2013-11-25 05:21:00,32.0,12.0,-100.00,SSE,163,0.0,4.0,42,-99.99,,,0.01,0.000000,,2013-11-25 12:21:00,
2013-11-25 05:32:00,32.0,12.0,-100.00,SSE,163,0.0,4.0,42,-99.99,,,0.01,0.000000,,2013-11-25 12:32:00,
2013-11-25 05:42:00,32.0,12.0,-100.00,SSE,163,0.0,4.0,42,-99.99,,,0.01,0.000000,,2013-11-25 12:42:00,
2013-11-25 05:52:00,32.0,12.0,-100.00,SSE,163,0.0,4.0,42,-99.99,,,0.01,0.000000,,2013-11-25 12:52:00,
2013-11-25 06:22:00,36.0,13.0,-100.00,ESE,102,0.0,4.0,38,0.00,,,0.01,0.000000,,2013-11-25 13:22:00,
2013-11-25 06:32:00,36.0,13.0,-100.00,ESE,102,0.0,4.0,38,0.00,,,0.01,0.000000,,2013-11-25 13:32:00,
2013-11-25 06:42:00,36.0,13.0,-100.00,ESE,102,0.0,4.0,38,0.00,,,0.01,0.000000,,2013-11-25 13:42:00,
2013-11-25 07:22:00,35.0,13.0,-100.00,East,101,0.0,3.0,39,-99.99,,,0.01,0.000000,,2013-11-25 14:22:00,
2013-11-25 07:32:00,35.0,13.0,-100.00,East,101,0.0,3.0,39,-99.99,,,0.01,0.000000,,2013-11-25 14:32:00,
2013-11-25 07:52:00,35.0,13.0,-100.00,East,101,0.0,3.0,39,-99.99,,,0.01,0.000000,,2013-11-25 14:52:00,
2013-11-25 08:21:00,36.0,15.0,-100.00,ESE,107,0.0,4.0,41,-99.99,,,0.01,1.000000,,2013-11-25 15:21:00,
2013-11-25 08:33:00,36.0,15.0,-100.00,ESE,107,0.0,4.0,41,-99.99,,,0.01,1.000000,,2013-11-25 15:33:00,
2013-11-25 09:23:00,33.0,13.0,-100.00,NNW,344,0.0,3.0,44,-99.99,,,0.01,13.000000,,2013-11-25 16:23:00,
2013-11-25 09:33:00,33.0,13.0,-100.00,NNW,344,0.0,3.0,44,-99.99,,,0.01,13.000000,,2013-11-25 16:33:00,
2013-11-25 09:43:00,33.0,13.0,-100.00,NNW,344,0.0,3.0,44,-99.99,,,0.01,13.000000,,2013-11-25 16:43:00,
2013-11-25 10:52:00,42.0,19.0,-100.00,SSW,202,0.0,4.0,39,-99.99,,,0.01,222.000000,,2013-11-25 17:52:00,
2013-11-25 11:21:00,42.0,19.0,-100.00,SW,226,1.0,5.0,39,-99.99,,,0.01,139.000000,,2013-11-25 18:21:00,
2013-11-25 11:33:00,42.0,19.0,-100.00,SW,226,1.0,5.0,39,-99.99,,,0.01,139.000000,,2013-11-25 18:33:00,
2013-11-25 11:42:00,42.0,19.0,-100.00,SW,226,1.0,5.0,39,-99.99,,,0.01,139.000000,,2013-11-25 18:42:00,
2013-11-25 11:52:00,42.0,19.0,-100.00,SW,226,1.0,5.0,39,-99.99,,,0.01,139.000000,,2013-11-25 18:52:00,
2013-11-25 12:21:00,43.0,20.0,-100.00,WSW,241,1.0,6.0,40,0.00,,,0.01,369.000000,,2013-11-25 19:21:00,
2013-11-25 12:32:00,43.0,20.0,-100.00,WSW,241,1.0,6.0,40,0.00,,,0.01,369.000000,,2013-11-25 19:32:00,
2013-11-25 12:42:00,43.0,20.0,-100.00,WSW,241,1.0,6.0,40,0.00,,,0.01,369.000000,,2013-11-25 19:42:00,
2013-11-25 12:52:00,43.0,20.0,-100.00,WSW,241,1.0,6.0,40,0.00,,,0.01,369.000000,,2013-11-25 19:52:00,
2013-11-25 13:21:00,46.0,21.0,-100.00,SW,218,1.0,5.0,37,0.00,,,0.00,592.000000,,2013-11-25 20:21:00,
2013-11-25 13:32:00,46.0,21.0,-100.00,SW,218,1.0,5.0,37,0.00,,,0.00,592.000000,,2013-11-25 20:32:00,
2013-11-25 13:42:00,46.0,21.0,-100.00,SW,218,1.0,5.0,37,0.00,,,0.00,592.000000,,2013-11-25 20:42:00,
2013-11-25 13:52:00,46.0,21.0,-100.00,SW,218,1.0,5.0,37,0.00,,,0.00,592.000000,,2013-11-25 20:52:00,
2013-11-25 14:22:00,48.0,20.0,-100.00,SW,235,0.0,6.0,32,0.00,,,0.00,488.000000,,2013-11-25 21:22:00,
2013-11-25 14:33:00,48.0,20.0,-100.00,SW,235,0.0,6.0,32,0.00,,,0.00,488.000000,,2013-11-25 21:33:00,
2013-11-25 14:44:00,48.0,20.0,-100.00,SW,235,0.0,6.0,32,0.00,,,0.00,488.000000,,2013-11-25 21:44:00,
2013-11-25 14:53:00,48.0,20.0,-100.00,SW,235,0.0,6.0,32,0.00,,,0.00,488.000000,,2013-11-25 21:53:00,
2013-11-25 15:23:00,44.0,22.0,-100.00,South,189,0.0,4.0,41,0.00,,,0.00,206.000000,,2013-11-25 22:23:00,
2013-11-25 15:33:00,44.0,22.0,-100.00,South,189,0.0,4.0,41,0.00,,,0.00,206.000000,,2013-11-25 22:33:00,
2013-11-25 15:43:00,44.0,22.0,-100.00,South,189,0.0,4.0,41,0.00,,,0.00,206.000000,,2013-11-25 22:43:00,
2013-11-25 15:52:00,44.0,22.0,-100.00,South,189,0.0,4.0,41,0.00,,,0.00,206.000000,,2013-11-25 22:52:00,
2013-11-25 16:22:00,43.0,23.0,-100.00,NW,306,0.0,4.0,45,0.00,,,0.00,169.000000,,2013-11-25 23:22:00,
2013-11-25 16:33:00,43.0,23.0,-100.00,NW,306,0.0,4.0,45,0.00,,,0.00,169.000000,,2013-11-25 23:33:00,
2013-11-25 16:42:00,43.0,23.0,-100.00,NW,306,0.0,4.0,45,0.00,,,0.00,169.000000,,2013-11-25 23:42:00,
2013-11-25 16:52:00,43.0,23.0,-100.00,NW,306,0.0,4.0,45,0.00,,,0.00,169.000000,,2013-11-25 23:52:00,
2013-11-25 17:21:00,42.0,21.0,-100.00,NE,48,0.0,2.0,43,0.00,,,0.00,25.000000,,2013-11-26 00:21:00,
2013-11-25 17:32:00,42.0,21.0,-100.00,NE,48,0.0,2.0,43,0.00,,,0.00,25.000000,,2013-11-26 00:32:00,
2013-11-25 17:42:00,42.0,21.0,-100.00,NE,48,0.0,2.0,43,0.00,,,0.00,25.000000,,2013-11-26 00:42:00,
2013-11-25 17:52:00,42.0,21.0,-100.00,NE,48,0.0,2.0,43,0.00,,,0.00,25.000000,,2013-11-26 00:52:00,
2013-11-25 18:21:00,42.0,21.0,-100.00,ESE,105,0.0,0.0,42,-99.99,,,0.00,0.000000,,2013-11-26 01:21:00,
2013-11-25 18:32:00,42.0,21.0,-100.00,ESE,105,0.0,0.0,42,-99.99,,,0.00,0.000000,,2013-11-26 01:32:00,
2013-11-25 18:42:00,42.0,21.0,-100.00,ESE,105,0.0,0.0,42,-99.99,,,0.00,0.000000,,2013-11-26 01:42:00,
2013-11-25 18:52:00,42.0,21.0,-100.00,ESE,105,0.0,0.0,42,-99.99,,,0.00,0.000000,,2013-11-26 01:52:00,
2013-11-25 19:22:00,39.0,19.0,-100.00,ESE,108,0.0,0.0,45,-99.99,,,0.00,0.000000,,2013-11-26 02:22:00,
2013-11-25 19:32:00,39.0,19.0,-100.00,ESE,108,0.0,0.0,45,-99.99,,,0.00,0.000000,,2013-11-26 02:32:00,
2013-11-25 19:42:00,39.0,19.0,-100.00,ESE,108,0.0,0.0,45,-99.99,,,0.00,0.000000,,2013-11-26 02:42:00,
2013-11-25 19:52:00,39.0,19.0,-100.00,ESE,108,0.0,0.0,45,-99.99,,,0.00,0.000000,,2013-11-26 02:52:00,
2013-11-25 20:22:00,36.0,19.0,-100.00,WSW,243,0.0,0.0,50,0.00,,,0.00,0.000000,,2013-11-26 03:22:00,
2013-11-25 20:33:00,36.0,19.0,-100.00,WSW,243,0.0,0.0,50,0.00,,,0.00,0.000000,,2013-11-26 03:33:00,
2013-11-25 20:44:00,36.0,19.0,-100.00,WSW,243,0.0,0.0,50,0.00,,,0.00,0.000000,,2013-11-26 03:44:00,
2013-11-25 20:53:00,36.0,19.0,-100.00,WSW,243,0.0,0.0,50,0.00,,,0.00,0.000000,,2013-11-26 03:53:00,
2013-11-25 21:23:00,37.0,21.0,-100.00,SSE,149,1.0,4.0,52,0.00,,,0.00,0.000000,,2013-11-26 04:23:00,
2013-11-25 21:34:00,37.0,21.0,-100.00,SSE,149,1.0,4.0,52,0.00,,,0.00,0.000000,,2013-11-26 04:34:00,
2013-11-25 21:43:00,37.0,21.0,-100.00,SSE,149,1.0,4.0,52,0.00,,,0.00,0.000000,,2013-11-26 04:43:00,
2013-11-25 21:53:00,37.0,21.0,-100.00,SSE,149,1.0,4.0,52,0.00,,,0.00,0.000000,,2013-11-26 04:53:00,
2013-11-25 22:23:00,36.0,19.0,-100.00,WNW,283,0.0,4.0,49,0.00,,,0.00,0.000000,,2013-11-26 05:23:00,
2013-11-25 22:33:00,36.0,19.0,-100.00,WNW,283,0.0,4.0,49,0.00,,,0.00,0.000000,,2013-11-26 05:33:00,
2013-11-25 22:43:00,36.0,19.0,-100.00,WNW,283,0.0,4.0,49,0.00,,,0.00,0.000000,,2013-11-26 05:43:00,
2013-11-25 22:53:00,36.0,19.0,-100.00,WNW,283,0.0,4.0,49,0.00,,,0.00,0.000000,,2013-11-26 05:53:00,
2013-11-25 23:22:00,37.0,21.0,-100.00,ESE,117,0.0,3.0,52,0.00,,,-99.99,0.000000,,2013-11-26 06:22:00,
2013-11-25 23:32:00,37.0,21.0,-100.00,ESE,117,0.0,3.0,52,0.00,,,-99.99,0.000000,,2013-11-26 06:32:00,
2013-11-25 23:42:00,37.0,21.0,-100.00,ESE,117,0.0,3.0,52,0.00,,,-99.99,0.000000,,2013-11-26 06:42:00,
2013-11-25 23:52:00,37.0,21.0,-100.00,ESE,117,0.0,3.0,52,0.00,,,-99.99,0.000000,,2013-11-26 06:52:00,